CZ-6A DEB, 60645

Orbit data source: Space-Track

CZ-6A DEB, 60645 is space debris in LEO originally from a launch on Tue, 06 Aug 2024 UTC launched from the Taiyaun Space Center, China (TSC). Debris objects in space refer to the collection of defunct objects orbiting the Earth. Examples of debris include non-operational satellites, rocket bodies, and fragments generated from explosions, collisions, or faulty payload assembly.

Loading next visibility...
Identifier
60645, 2024-140AW
Orbit
LEO
Country
Flag of CNCN / PRC
Related business
Manufacturer
SAST
Mission
Spacecraft
Bus & Motor
Unknown
Mass
Unknown
Launch date (UTC)
2024-08-06 (2 years ago)
Launch vehicle
Unknown
Launch site
Taiyaun Space Center, China (TSC)
Object type
Payload
Rocket body
Debris
Shape & HBR
Unknown shape, 0.1 m
Radar Cross Section
Medium (>0.1 m² and <1 m²)

Expand to show TLE details & history
Last TLE update: 10 hours ago

TLE from 10 hours ago
0 CZ-6A DEB
1 60645U 24140AW  26130.12934877  .00000483  00000-0  48666-3 0  9993
2 60645  88.7538 273.0505 0504910 204.6106 153.0168 13.31272204 85138
Epoch: 2026-05-10T03:06Z
TLE epoch observation values (Epoch: 2026-05-10T03:06:15.733Z)
Latitude
-0.00001°
Longitude
-1.45192°
Altitude
1,487.019 km
Speed
6.956 km/s
True Right ascension
18h 12m 12s
True Declination
0° 00' 00"
Sunlit
Object was in full shadow at epoch
Visualization orbit readout
Latitude
Unknown
Longitude
Unknown
Altitude
Unknown
Speed
Unknown
Apparent Right ascension
Unknown
Apparent Declination
Unknown
Sunlit
N/A
Visualization observer readout
Local Sidereal Time
21:24:49
Azimuth
Unknown
Elevation
Unknown
Doppler factor
Unknown
Orbital elements
Apogee altitude
1,518.588 km
Perigee altitude
759.489 km
Semi-major axis
7,517.176 km
Eccentricity
0.05049
Inclination
88.7538°
RAAN
273.0505°
Arg. of periapsis
204.6106°
True anomaly
155.50117°
Mean anomaly
153.0168°
Eccentric anomaly
154.27259°
Mean motion
3.33013 °/min
Orbital period
108.1 mins
BSTAR
0.00048666
Loading maneuver chart data...
Computing Atmospheric mass density...
Loading historical data...
Loading historical data...
Loading historical data...
Loading historical data...
Loading historical data...
Loading historical data...
Loading historical data...

Documentation

Showing up to 5 results
|